DW9605 Weather Reports


time (UTC)temp
C
wind
direction
speed
KPH
gust
KPH
rain 1hr
cm
rain 24hr
cm
rain mn
cm
humidity
%
barometer
mb
20260504081520 10 360 12.9 27.4 0.00 0.00 0.00 50 1013.0
20260504060104 12 360 27.4 43.5 0.00 0.00 0.00 36 1009.1
20260504044605 15 360 32.2 41.8 0.00 0.00 0.00 36 1007.0
20260504043100 15 360 22.5 27.4 0.00 0.00 0.00 35 1006.7
20260504041558 15 360 22.5 29.0 0.00 0.00 0.00 34 1006.3
20260504040107 14 360 16.1 22.5 0.00 0.00 0.00 36 1006.0
20260504034629 15 360 20.9 30.6 0.00 0.00 0.00 35 1005.7
20260504033057 15 360 22.5 35.4 0.00 0.03 0.00 34 1005.3
20260504031557 16 360 27.4 38.6 0.00 0.03 0.00 33 1005.0
20260504030120 16 360 20.9 27.4 0.00 0.03 0.00 29 1004.6
20260504024601 15 360 11.3 14.5 0.00 0.03 0.00 26 1004.4
20260504023056 17 121 11.3 12.9 0.00 0.03 0.00 24 1004.4
20260504021557 18 360 9.7 14.5 0.00 0.03 0.00 22 1004.4
20260504020106 20 360 12.9 19.3 0.00 0.03 0.00 21 1004.4
20260504014603 21 360 12.9 22.5 0.00 0.03 0.00 20 1004.5
20260504013056 21 360 14.5 25.7 0.00 0.03 0.00 20 1004.4
20260504011554 22 360 19.3 25.7 0.00 0.03 0.00 19 1004.5
20260504010054 22 360 14.5 27.4 0.00 0.03 0.00 19 1004.5
20260504004553 23 360 16.1 33.8 0.00 0.03 0.00 18 1004.7
20260504003054 23 360 19.3 33.8 0.00 0.03 0.00 18 1004.8
20260504001603 23 360 12.9 29.0 0.00 0.03 0.00 17 1004.9
20260504000056 23 360 11.3 24.1 0.00 0.03 0.00 17 1004.8
20260503234548 24 360 19.3 32.2 0.00 0.03 0.00 16 1005.0
20260503233047 23 360 14.5 27.4 0.00 0.03 0.00 16 1005.1
20260503231551 23 360 20.9 29.0 0.00 0.03 0.00 15 1005.2
20260503230045 23 360 17.7 33.8 0.00 0.03 0.00 16 1005.5
20260503224542 23 360 11.3 30.6 0.00 0.03 0.00 16 1005.7
20260503223041 23 360 22.5 33.8 0.00 0.03 0.00 16 1006.0
20260503221544 23 360 17.7 33.8 0.00 0.03 0.00 16 1006.1
20260503220039 23 360 14.5 33.8 0.00 0.03 0.00 16 1006.4
20260503214538 23 360 20.9 30.6 0.00 0.03 0.00 16 1006.5
20260503213041 23 360 16.1 32.2 0.00 0.03 0.00 17 1006.7
20260503211536 23 360 16.1 25.7 0.00 0.03 0.00 17 1007.1
20260503210030 22 360 9.7 32.2 0.00 0.03 0.00 18 1007.3
20260503204531 23 360 20.9 37.0 0.00 0.03 0.00 17 1007.6
20260503203026 22 360 16.1 27.4 0.00 0.03 0.00 18 1008.0
20260503201524 22 360 11.3 33.8 0.00 0.03 0.00 18 1008.2
20260503200023 22 360 16.1 29.0 0.00 0.03 0.00 20 1008.3
20260503194523 22 360 14.5 25.7 0.00 0.03 0.00 20 1008.6
20260503193023 22 360 20.9 33.8 0.00 0.03 0.00 19 1008.7
20260503191518 21 360 8.0 24.1 0.00 0.03 0.00 21 1009.0
20260503190036 21 360 17.7 32.2 0.00 0.03 0.00 20 1009.2
20260503184513 21 360 19.3 32.2 0.00 0.03 0.00 21 1009.4
20260503183016 21 360 12.9 30.6 0.00 0.03 0.00 21 1009.6
20260503181508 21 360 9.7 25.7 0.00 0.03 0.00 21 1009.8
20260503180011 21 360 16.1 27.4 0.00 0.03 0.00 22 1010.1
20260503174505 20 360 14.5 30.6 0.00 0.03 0.00 22 1010.1
20260503173000 20 360 12.9 17.7 0.00 0.03 0.00 24 1010.2
20260503171558 20 360 14.5 24.1 0.00 0.03 0.00 27 1010.4